Regional Weather Roundup
Issued by NWS Charleston, WV

Home | Current Version | Previous Version | Graphics & Text | Print | Product List | Glossary On
Versions: 1 2 3 4 5 6 7 8 9 10 11 12 13 14 15 16 17 18 19 20 21 22 23 24 25 26 27 28
000
ASUS41 KRLX 231710
RWRRLX
West Virginia Regional Weather Roundup
National Weather Service Charleston WV
100 PM EDT WED MAY 23 2018

Note: "fair" indicates few or no clouds below 12,000 feet with no
significant weather and/or obstructions to visibility.

WVZ003-231800-
Northern Panhandle of West Virginia

CITY           SKY/WX    TMP DP  RH WIND       PRES   REMARKS
WHEELING       CLOUDY    64  54  69 N6        30.18S
$$

WVZ009-231800-
Northwest West Virginia

CITY           SKY/WX    TMP DP  RH WIND       PRES   REMARKS
PARKERSBURG    CLOUDY    68  56  65 N7        30.20R
$$

WVZ006-231800-
Western West Virginia

CITY           SKY/WX    TMP DP  RH WIND       PRES   REMARKS
HUNTINGTON     PTSUNNY   76  62  62 N8        30.14S
$$

WVZ015-231800-
West Central West Virginia

CITY           SKY/WX    TMP DP  RH WIND       PRES   REMARKS
CHARLESTON     PTSUNNY   73  65  75 VRB6      30.14S
$$

WVZ022-031-231800-
North Central West Virginia

CITY           SKY/WX    TMP DP  RH WIND       PRES   REMARKS
CLARKSBURG     PTSUNNY   71  61  70 N13       30.13S
MORGANTOWN     CLOUDY    63  59  87 N12       30.17R
$$

WVZ025-035-042-045-231800-
Southern West Virginia

CITY           SKY/WX    TMP DP  RH WIND       PRES   REMARKS
BECKLEY        CLOUDY    71  57  61 NW12      30.18S
LOGAN          PTSUNNY   75  63  64 CALM      30.15S
BLUEFIELD      PTSUNNY   70  62  76 VRB7      30.19F
LEWISBURG      PTSUNNY   74  58  57 NW6       30.16S
$$

WVZ047-231800-
Northern Mountains of West Virginia

CITY           SKY/WX    TMP DP  RH WIND       PRES   REMARKS
ELKINS         FAIR      74  60  61 VRB7      30.15S
$$

WVZ052-231800-
Eastern Panhandle of West Virginia

CITY           SKY/WX    TMP DP  RH WIND       PRES   REMARKS
MARTINSBURG    CLOUDY    75  59  57 N10       30.05S
PETERSBURG     FAIR      77  60  55 NW9         N/A
$$




USA.gov is the U.S. government's official web portal to all federal, state and local government web resources and services.